Location: Rumah Dana
(3.1167°N, 113.0167°E)
Time: 05:01:41
(UTC+00:00)

SL-24 R/B - RUBIN 2 - Pass Details

Date: 20 January 2026
Orbit: 602 x 985 km, 64.6° (Epoch: 10 February)

Event Time Altitude Azimuth Distance (km) Brightness Sun altitude
Rises 11:00:21 0° 355° (N) 2,906 6.9 -6.1°
Reaches altitude 10° 11:02:45 10° 5° (N) 2,040 6.0 -6.7°
Maximum altitude 11:06:51 32° 69° (ENE) 1,167 4.4 -7.6°
Drops below altitude 10° 11:11:21 10° 132° (SE) 2,234 6.1 -8.7°
Sets 11:14:04 0° 141° (SE) 3,229 7.0 -9.3°
